Change the Weather History Date:

Saturday, March 9, 2013

  Actual Average Record
Temperature  
Mean Temperature 35 °F 31 °F  
Max Temperature 46 °F 40 °F 67 °F (2000)
Min Temperature 24 °F 22 °F -5 °F (1978)
Degree Days  
Heating Degree Days 30 34  
Month to date heating degree days 341 315  
Since 1 July heating degree days 4994 5403  
Cooling Degree Days 0 0  
Month to date cooling degree days 0 0  
Year to date cooling degree days 0 0  
Moisture  
Dew Point 26 °F    
Average Humidity 69    
Maximum Humidity 85    
Minimum Humidity 53    
Precipitation  
Precipitation 0.01 in 0.06 in 0.87 in (1998)
Month to date precipitation 0.05 0.51  
Year to date precipitation 5.51 3.62  
Snow  
Snow 0.00 in 0.20 in 1.80 in (1998)
Month to date snowfall 0.5 2.5  
Since 1 July snowfall 39.0 41.1  
Snow Depth T in    
Sea Level Pressure  
Sea Level Pressure 30.27 in    
Wind  
Wind Speed 9 mph (SSE)    
Max Wind Speed 16 mph    
Max Gust Speed 22 mph    
Visibility 10 miles    
Events Rain    
T = Trace of Precipitation, MM = Missing Value Source: NWS Daily Summary

Daily Weather History Graph

Daily Weather History Graph

Search for Another Location

Airport or City:

Trip Planner

Search our weather history database for the weather conditions in past years. The results will help you decide how hot, cold, wet, or windy it might be!

Date:

Astronomy

Mar. 09, 2013 Rise Set
Actual Time 6:57 AM EST 6:34 PM EST
Civil Twilight 6:28 AM EST 7:02 PM EST
Nautical Twilight 5:55 AM EST 7:35 PM EST
Astronomical Twilight 5:22 AM EST 8:08 PM EST
Moon 5:23 AM EST (3/9) 4:33 PM EST (3/9)
Length of Visible Light 12h 34m
Length of Day
11h 37m
Waning Crescent, 5% of the Moon is Illuminated
Mar 9
Waning Crescent
Mar 11
New
Mar 19
First Quarter
Mar 27
Full
Apr 3
Last Quarter

Hourly Weather History & Observations

Time (EST) Temp. Windchill Dew Point Humidity Pressure Visibility Wind Dir Wind Speed Gust Speed Precip Events Conditions
12:53 AM 28.9 °F - 24.1 °F 82% 30.42 in 10.0 mi Calm Calm - N/A   Clear
1:53 AM 28.9 °F 25.2 °F 23.0 °F 78% 30.41 in 10.0 mi South 3.5 mph - N/A   Clear
2:53 AM 28.9 °F 23.9 °F 23.0 °F 78% 30.40 in 10.0 mi South 4.6 mph - N/A   Clear
3:53 AM 26.1 °F 20.5 °F 21.0 °F 81% 30.37 in 10.0 mi SSE 4.6 mph - N/A   Clear
4:53 AM 28.0 °F 22.8 °F 21.9 °F 78% 30.38 in 10.0 mi SSE 4.6 mph - N/A   Clear
5:53 AM 26.1 °F 19.4 °F 21.0 °F 81% 30.38 in 10.0 mi SSE 5.8 mph - N/A   Clear
6:53 AM 25.0 °F 19.3 °F 19.9 °F 81% 30.38 in 9.0 mi SSE 4.6 mph - N/A   Clear
7:53 AM 30.0 °F 26.5 °F 25.0 °F 82% 30.37 in 8.0 mi SSE 3.5 mph - N/A   Clear
8:53 AM 33.1 °F 26.9 °F 26.1 °F 75% 30.37 in 10.0 mi SSE 6.9 mph - N/A   Clear
9:53 AM 37.0 °F 30.4 °F 28.0 °F 70% 30.37 in 10.0 mi South 9.2 mph 17.3 mph N/A   Clear
10:53 AM 39.9 °F 33.9 °F 28.0 °F 63% 30.34 in 10.0 mi SSE 9.2 mph - N/A   Clear
11:53 AM 41.0 °F 33.9 °F 28.0 °F 60% 30.32 in 10.0 mi SSE 12.7 mph - N/A   Clear
12:53 PM 43.0 °F 36.0 °F 28.9 °F 58% 30.30 in 10.0 mi South 13.8 mph - N/A   Clear
1:53 PM 45.0 °F 38.5 °F 30.0 °F 56% 30.25 in 10.0 mi SSE 13.8 mph 21.9 mph N/A   Clear
2:53 PM 45.0 °F 38.2 °F 28.9 °F 53% 30.21 in 10.0 mi SSE 15.0 mph - N/A   Partly Cloudy
3:53 PM 43.0 °F 36.0 °F 27.0 °F 53% 30.19 in 10.0 mi SSE 13.8 mph - N/A   Overcast
4:53 PM 43.0 °F 36.8 °F 28.0 °F 56% 30.16 in 10.0 mi SE 11.5 mph - N/A   Mostly Cloudy
5:53 PM 41.0 °F 33.9 °F 28.0 °F 60% 30.16 in 10.0 mi SSE 12.7 mph - N/A   Partly Cloudy
6:53 PM 41.0 °F 34.3 °F 27.0 °F 57% 30.12 in 10.0 mi SE 11.5 mph - N/A   Mostly Cloudy
7:53 PM 39.0 °F 32.3 °F 28.9 °F 67% 30.11 in 10.0 mi SE 10.4 mph - N/A   Mostly Cloudy
8:53 PM 39.9 °F 32.9 °F 30.0 °F 68% 30.10 in 10.0 mi SSE 11.5 mph - N/A   Overcast
9:53 PM 39.0 °F 31.4 °F 28.9 °F 67% 30.08 in 10.0 mi SE 12.7 mph - N/A   Overcast
10:53 PM 39.0 °F 31.4 °F 30.9 °F 73% 30.06 in 9.0 mi SSE 12.7 mph - 0.01 in Rain Light Rain
11:53 PM 39.0 °F 33.4 °F 30.9 °F 73% 30.04 in 10.0 mi SSE 8.1 mph - 0.00 in   Overcast